| time (UTC) | temp F | wind direction | speed MPH | gust MPH | rain 1hr in | rain 24hr in | rain mn in | humidity % | barometer mb |
| 20260510175753 | 81 | 130 | 3.0 | 8.0 | 0.00 | 0.00 | 0.00 | 45 | 1012.2 |
| 20260510174507 | 82 | 280 | 2.0 | 7.0 | 0.00 | 0.00 | 0.00 | 48 | 1012.2 |
| 20260510174253 | 82 | 328 | 4.0 | 8.0 | 0.00 | 0.00 | 0.00 | 48 | 1012.2 |
| 20260510172753 | 81 | 84 | 2.0 | 10.0 | 0.00 | 0.00 | 0.00 | 48 | 1012.2 |
| 20260510171252 | 80 | 299 | 1.0 | 10.0 | 0.00 | 0.00 | 0.00 | 52 | 1012.3 |
| 20260510165752 | 81 | 151 | 0.0 | 6.0 | 0.00 | 0.00 | 0.00 | 51 | 1012.5 |
| 20260510164510 | 80 | 177 | 4.0 | 7.0 | 0.00 | 0.00 | 0.00 | 51 | 1012.6 |
| 20260510164252 | 80 | 165 | 1.0 | 6.0 | 0.00 | 0.00 | 0.00 | 51 | 1012.6 |
| 20260510162752 | 80 | 149 | 0.0 | 8.0 | 0.00 | 0.00 | 0.00 | 54 | 1012.7 |
| 20260510161252 | 80 | 298 | 4.0 | 8.0 | 0.00 | 0.00 | 0.00 | 52 | 1012.8 |
| 20260510155751 | 79 | 246 | 0.0 | 8.0 | 0.00 | 0.00 | 0.00 | 57 | 1012.8 |
| 20260510154446 | 78 | 109 | 2.0 | 8.0 | 0.00 | 0.00 | 0.00 | 57 | 1012.9 |
| 20260510154251 | 78 | 208 | 0.0 | 8.0 | 0.00 | 0.00 | 0.00 | 59 | 1012.9 |
| 20260510152751 | 78 | 138 | 0.0 | 9.0 | 0.00 | 0.00 | 0.00 | 63 | 1012.9 |
| 20260510151251 | 76 | 129 | 2.0 | 9.0 | 0.00 | 0.00 | 0.00 | 62 | 1012.9 |
| 20260510145751 | 75 | 72 | 4.0 | 7.0 | 0.00 | 0.00 | 0.00 | 62 | 1012.7 |
| 20260510144447 | 75 | 275 | 0.0 | 7.0 | 0.00 | 0.00 | 0.00 | 64 | 1012.7 |
| 20260510144251 | 75 | 249 | 0.0 | 7.0 | 0.00 | 0.00 | 0.00 | 64 | 1012.5 |
| 20260510142750 | 74 | 151 | 5.0 | 5.0 | 0.00 | 0.00 | 0.00 | 64 | 1012.4 |
| 20260510141250 | 74 | 137 | 1.0 | 5.0 | 0.00 | 0.00 | 0.00 | 65 | 1012.4 |
| 20260510135750 | 72 | 119 | 0.0 | 4.0 | 0.00 | 0.00 | 0.00 | 69 | 1012.4 |
| 20260510134511 | 71 | 178 | 0.0 | 2.0 | 0.00 | 0.00 | 0.00 | 74 | 1012.4 |
| 20260510134250 | 71 | 123 | 0.0 | 4.0 | 0.00 | 0.00 | 0.00 | 73 | 1012.4 |
| 20260510132750 | 69 | 253 | 0.0 | 6.0 | 0.00 | 0.00 | 0.00 | 76 | 1012.5 |
| 20260510131249 | 67 | 125 | 0.0 | 6.0 | 0.00 | 0.00 | 0.00 | 81 | 1012.7 |
| 20260510125749 | 65 | 189 | 0.0 | 7.0 | 0.00 | 0.00 | 0.00 | 84 | 1012.9 |
| 20260510124449 | 63 | 27 | 4.0 | 6.0 | 0.00 | 0.00 | 0.00 | 85 | 1012.9 |
| 20260510124249 | 63 | 9 | 2.0 | 7.0 | 0.00 | 0.00 | 0.00 | 86 | 1012.9 |
| 20260510122749 | 61 | 11 | 2.0 | 8.0 | 0.00 | 0.00 | 0.00 | 89 | 1012.8 |
| 20260510115749 | 59 | 311 | 4.0 | 4.0 | 0.00 | 0.00 | 0.00 | 91 | 1012.6 |
| 20260510114445 | 58 | 5 | 2.0 | 5.0 | 0.00 | 0.00 | 0.00 | 92 | 1012.4 |
| 20260510114248 | 58 | 337 | 2.0 | 4.0 | 0.00 | 0.00 | 0.00 | 92 | 1012.3 |
| 20260510112748 | 58 | 337 | 0.0 | 1.0 | 0.00 | 0.00 | 0.00 | 94 | 1012.0 |
| 20260510111248 | 55 | 149 | 0.0 | 1.0 | 0.00 | 0.00 | 0.00 | 96 | 1011.7 |
| 20260510105748 | 53 | 228 | 0.0 | 1.0 | 0.00 | 0.00 | 0.00 | 96 | 1011.5 |
| 20260510104450 | 52 | 253 | 0.0 | 1.0 | 0.00 | 0.00 | 0.00 | 96 | 1011.3 |
| 20260510104248 | 52 | 253 | 0.0 | 1.0 | 0.00 | 0.00 | 0.00 | 96 | 1011.3 |
| 20260510102747 | 50 | 159 | 0.0 | 0.0 | 0.00 | 0.00 | 0.00 | 96 | 1011.2 |
| 20260510101247 | 50 | 167 | 0.0 | 0.0 | 0.00 | 0.00 | 0.00 | 95 | 1011.2 |
| 20260510095747 | 50 | 189 | 0.0 | 0.0 | 0.00 | 0.00 | 0.00 | 95 | 1011.0 |
| 20260510094456 | 50 | 189 | 0.0 | 0.0 | 0.00 | 0.00 | 0.00 | 95 | 1011.0 |
| 20260510094247 | 50 | 155 | 0.0 | 0.0 | 0.00 | 0.00 | 0.00 | 95 | 1011.0 |
| 20260510092747 | 51 | 123 | 0.0 | 0.0 | 0.00 | 0.00 | 0.00 | 95 | 1010.9 |
| 20260510091247 | 51 | 123 | 0.0 | 0.0 | 0.00 | 0.00 | 0.00 | 95 | 1010.9 |
| 20260510085746 | 51 | 123 | 0.0 | 0.0 | 0.00 | 0.00 | 0.00 | 95 | 1010.7 |
| 20260510084515 | 51 | 123 | 0.0 | 0.0 | 0.00 | 0.00 | 0.00 | 95 | 1010.6 |
| 20260510084246 | 51 | 123 | 0.0 | 0.0 | 0.00 | 0.00 | 0.00 | 95 | 1010.5 |
| 20260510082746 | 52 | 123 | 0.0 | 0.0 | 0.00 | 0.00 | 0.00 | 94 | 1010.2 |
| 20260510081246 | 52 | 123 | 0.0 | 0.0 | 0.00 | 0.00 | 0.00 | 94 | 1010.0 |
| 20260510075746 | 52 | 123 | 0.0 | 0.0 | 0.00 | 0.00 | 0.00 | 94 | 1009.9 |
| 20260510074445 | 53 | 123 | 0.0 | 0.0 | 0.00 | 0.00 | 0.00 | 94 | 1009.8 |
| 20260510074245 | 53 | 123 | 0.0 | 0.0 | 0.00 | 0.00 | 0.00 | 94 | 1009.8 |
| 20260510072745 | 53 | 123 | 0.0 | 0.0 | 0.00 | 0.00 | 0.00 | 94 | 1009.7 |
| 20260510071245 | 54 | 123 | 0.0 | 0.0 | 0.00 | 0.00 | 0.00 | 93 | 1009.6 |
| 20260510065745 | 54 | 123 | 0.0 | 0.0 | 0.00 | 0.00 | 0.00 | 93 | 1009.6 |
| 20260510064446 | 54 | 123 | 0.0 | 0.0 | 0.00 | 0.00 | 0.00 | 93 | 1009.6 |
| 20260510064245 | 55 | 123 | 0.0 | 0.0 | 0.00 | 0.00 | 0.00 | 93 | 1009.5 |
| 20260510062744 | 55 | 123 | 0.0 | 0.0 | 0.00 | 0.00 | 0.00 | 93 | 1009.5 |
| 20260510061244 | 55 | 123 | 0.0 | 0.0 | 0.00 | 0.00 | 0.00 | 93 | 1009.4 |
| 20260510055744 | 56 | 123 | 0.0 | 0.0 | 0.00 | 0.00 | 0.00 | 92 | 1009.4 |
| 20260510054444 | 56 | 123 | 0.0 | 0.0 | 0.00 | 0.00 | 0.00 | 92 | 1009.4 |
| 20260510054244 | 56 | 123 | 0.0 | 0.0 | 0.00 | 0.00 | 0.00 | 91 | 1009.4 |
| 20260510052744 | 56 | 123 | 0.0 | 0.0 | 0.00 | 0.00 | 0.00 | 91 | 1009.6 |
| 20260510051243 | 56 | 123 | 0.0 | 0.0 | 0.00 | 0.00 | 0.00 | 90 | 1009.6 |
| 20260510045743 | 57 | 123 | 0.0 | 0.0 | 0.00 | 0.00 | 0.00 | 89 | 1009.6 |
| 20260510044513 | 57 | 123 | 0.0 | 0.0 | 0.00 | 0.00 | 0.00 | 88 | 1009.7 |
| 20260510044243 | 57 | 123 | 0.0 | 0.0 | 0.00 | 0.00 | 0.00 | 88 | 1009.6 |
| 20260510042743 | 58 | 123 | 0.0 | 0.0 | 0.00 | 0.00 | 0.00 | 87 | 1009.7 |
| 20260510041243 | 59 | 123 | 0.0 | 0.0 | 0.00 | 0.00 | 0.00 | 86 | 1009.5 |
| 20260510035742 | 59 | 123 | 0.0 | 0.0 | 0.00 | 0.00 | 0.00 | 85 | 1009.4 |
| 20260510034513 | 60 | 123 | 0.0 | 0.0 | 0.00 | 0.00 | 0.00 | 84 | 1009.5 |
| 20260510034242 | 60 | 123 | 0.0 | 0.0 | 0.00 | 0.00 | 0.00 | 84 | 1009.4 |
| 20260510032742 | 61 | 123 | 0.0 | 0.0 | 0.00 | 0.00 | 0.00 | 82 | 1009.3 |
| 20260510031242 | 61 | 123 | 0.0 | 0.0 | 0.00 | 0.00 | 0.00 | 82 | 1009.2 |
| 20260510025742 | 62 | 123 | 0.0 | 0.0 | 0.00 | 0.00 | 0.00 | 81 | 1009.1 |
| 20260510024514 | 62 | 123 | 0.0 | 0.0 | 0.00 | 0.00 | 0.00 | 79 | 1009.1 |
| 20260510024241 | 62 | 123 | 0.0 | 0.0 | 0.00 | 0.00 | 0.00 | 79 | 1009.0 |
| 20260510022741 | 63 | 123 | 0.0 | 4.0 | 0.00 | 0.00 | 0.00 | 76 | 1009.0 |
| 20260510021241 | 64 | 123 | 0.0 | 4.0 | 0.00 | 0.00 | 0.00 | 75 | 1008.9 |
| 20260510015741 | 65 | 123 | 0.0 | 6.0 | 0.00 | 0.00 | 0.00 | 73 | 1008.7 |
| 20260510014515 | 65 | 123 | 0.0 | 4.0 | 0.00 | 0.00 | 0.00 | 72 | 1008.6 |
| 20260510014241 | 65 | 123 | 0.0 | 6.0 | 0.00 | 0.00 | 0.00 | 72 | 1008.6 |
| 20260510012741 | 66 | 140 | 1.0 | 5.0 | 0.00 | 0.00 | 0.00 | 71 | 1008.5 |
| 20260510011240 | 66 | 135 | 0.0 | 5.0 | 0.00 | 0.00 | 0.00 | 70 | 1008.3 |
| 20260510005740 | 66 | 136 | 0.0 | 10.0 | 0.00 | 0.00 | 0.00 | 70 | 1008.3 |
| 20260510004448 | 67 | 138 | 1.0 | 6.0 | 0.00 | 0.00 | 0.00 | 70 | 1008.3 |
| 20260510004240 | 67 | 123 | 0.0 | 10.0 | 0.00 | 0.00 | 0.00 | 70 | 1008.2 |
| 20260510002740 | 67 | 129 | 3.0 | 7.0 | 0.00 | 0.00 | 0.00 | 70 | 1008.1 |
| 20260510001240 | 67 | 150 | 2.0 | 7.0 | 0.00 | 0.00 | 0.00 | 71 | 1008.0 |
| 20260509235739 | 68 | 142 | 1.0 | 7.0 | 0.00 | 0.00 | 0.00 | 70 | 1007.8 |
| 20260509234522 | 69 | 136 | 3.0 | 6.0 | 0.00 | 0.00 | 0.00 | 69 | 1007.9 |
| 20260509234239 | 69 | 121 | 1.0 | 7.0 | 0.00 | 0.00 | 0.00 | 69 | 1007.8 |
| 20260509232739 | 70 | 144 | 1.0 | 11.0 | 0.00 | 0.00 | 0.00 | 67 | 1007.7 |
| 20260509231239 | 70 | 149 | 0.0 | 11.0 | 0.00 | 0.00 | 0.00 | 66 | 1007.5 |
| 20260509225739 | 72 | 140 | 2.0 | 10.0 | 0.00 | 0.00 | 0.00 | 63 | 1007.4 |
| 20260509224459 | 73 | 144 | 2.0 | 5.0 | 0.00 | 0.00 | 0.00 | 60 | 1007.5 |
| 20260509224239 | 73 | 144 | 0.0 | 10.0 | 0.00 | 0.00 | 0.00 | 60 | 1007.4 |
| 20260509222738 | 73 | 146 | 5.0 | 9.0 | 0.00 | 0.00 | 0.00 | 60 | 1007.6 |
| 20260509221238 | 73 | 140 | 6.0 | 9.0 | 0.00 | 0.00 | 0.00 | 59 | 1007.5 |
| 20260509215738 | 73 | 175 | 0.0 | 10.0 | 0.00 | 0.00 | 0.00 | 60 | 1007.5 |
| 20260509214446 | 73 | 219 | 4.0 | 6.0 | 0.00 | 0.00 | 0.00 | 59 | 1007.6 |
| 20260509214238 | 73 | 213 | 0.0 | 10.0 | 0.00 | 0.00 | 0.00 | 60 | 1007.5 |
| 20260509212738 | 73 | 136 | 5.0 | 13.0 | 0.00 | 0.00 | 0.00 | 59 | 1007.5 |
| 20260509211238 | 73 | 182 | 0.0 | 13.0 | 0.00 | 0.00 | 0.00 | 59 | 1007.3 |
| 20260509205737 | 73 | 151 | 0.0 | 13.0 | 0.00 | 0.00 | 0.00 | 58 | 1007.2 |
| 20260509204448 | 73 | 129 | 3.0 | 11.0 | 0.00 | 0.00 | 0.00 | 57 | 1007.2 |
| 20260509204237 | 73 | 133 | 4.0 | 13.0 | 0.00 | 0.00 | 0.00 | 58 | 1007.2 |
| 20260509202737 | 73 | 175 | 5.0 | 10.0 | 0.00 | 0.00 | 0.00 | 58 | 1007.3 |
| 20260509201237 | 73 | 155 | 1.0 | 10.0 | 0.00 | 0.00 | 0.00 | 57 | 1007.6 |
| 20260509195736 | 74 | 114 | 6.0 | 10.0 | 0.00 | 0.00 | 0.00 | 57 | 1007.7 |
| 20260509194522 | 73 | 211 | 4.0 | 10.0 | 0.00 | 0.00 | 0.00 | 58 | 1008.0 |
| 20260509194236 | 73 | 154 | 5.0 | 10.0 | 0.00 | 0.00 | 0.00 | 57 | 1008.0 |
| 20260509192736 | 73 | 235 | 2.0 | 11.0 | 0.00 | 0.00 | 0.00 | 58 | 1008.0 |
| 20260509191236 | 72 | 173 | 1.0 | 11.0 | 0.00 | 0.00 | 0.00 | 59 | 1008.3 |
| 20260509185736 | 72 | 202 | 3.0 | 5.0 | 0.00 | 0.00 | 0.00 | 60 | 1008.5 |
| 20260509184448 | 71 | 124 | 4.0 | 6.0 | 0.00 | 0.00 | 0.00 | 60 | 1008.9 |
| 20260509184236 | 71 | 132 | 4.0 | 5.0 | 0.00 | 0.00 | 0.00 | 62 | 1008.9 |
| 20260509182735 | 70 | 168 | 1.0 | 10.0 | 0.00 | 0.00 | 0.00 | 63 | 1009.0 |
| 20260509181235 | 70 | 199 | 0.0 | 10.0 | 0.00 | 0.00 | 0.00 | 63 | 1009.2 |